CAPE
1878 2385 2194 2448 2333 1767 1806 2062 2088 2152 2695 2766 2273 2174 2209 2428 2630 2329 2269 1707 1248 896 592 577 677 584 613 812 918 1013 1127 880 866 1202 1141 2457 2621 2226 2721 2494 2050 2387 2055 2603 2422 2560 2508 2401 2272 2336 2316 2425 2158 2170 2220 2249 2261 2138 2311 2432 2554 2487 2516 2569 2529 2706 2594 2651 2602 2734 2765 2681 2805 2803 2582 2540 2546 2529 2558 2532 2566 2647 2690 2600 2490
2032 2340 2472 2216 2527 2373 2506 2241 2575 2419 2566 1867 2201 2345 2213 2474 2637 2592 2138 1050 1091 1005 1069 687 827 958 910 720 621 596 1220 1371 1147 597 662 1536 1743 1595 2651 2320 2702 2703 2705 2334 2793 2683 2538 2549 2619 2711 2682 2709 2593 2630 2604 2624 2666 2638 2626 2739 2774 2810 2871 2918 2954 3048 3074 3063 3042 3053 3109 3136 3247 3166 2801 2668 2706 2670 2643 2620 2653 2672 2456 2709 2827
2370 2598 2662 2594 2052 2029 2269 2170 2373 1942 2019 2152 2193 2370 2473 2544 2730 2510 2152 1520 1095 1026 846 840 925 622 719 757 790 905 850 923 954 703 450 863 1914 1897 2064 2684 2604 3047 3181 3114 3026 2959 2699 2784 2824 2939 3010 2916 2984 2940 2900 2936 2923 2976 2988 3000 3088 3155 3197 3208 3252 3311 3329 3298 3300 3367 3404 3456 3570 3427 3112 3194 2959 2746 2847 2604 2813 3006 3047 3114 3268
2413 2414 2485 2364 2091 1946 1910 1951 1926 1948 2044 2198 2199 2439 2707 3028 2852 2947 1792 894 926 882 1079 1048 435 436 734 643 751 664 929 1216 819 1033 628 1027 1302 2264 2469 2163 2585 2756 2917 3411 3237 3078 3101 3081 3135 3111 3173 3243 3344 3378 3272 3236 3259 3275 3346 3478 3491 3526 3514 3649 3710 3719 3743 3748 3751 3736 3801 3796 3692 3458 3152 3283 3200 3019 2945 3188 3337 3382 3516 3565 3499
2151 1934 2029 2186 2220 2156 1953 1974 2075 2207 2239 3040 2666 2745 2551 2354 2403 3006 2324 1514 1102 487 808 584 854 1189 910 967 449 484 672 430 957 1217 846 1262 1632 1659 2621 3090 2429 2921 2977 2683 2692 3189 3309 3424 3399 3441 3449 3540 3584 3695 3665 3735 3812 3830 3830 3858 3863 3958 4006 4012 4008 4007 4082 4122 4112 4099 4105 4050 3774 3615 3669 3467 3504 3415 3569 3707 3784 3846 3704 3717 3709
2166 2150 1791 2145 2417 2272 2116 2218 2552 2482 2331 3548 2591 2355 2586 2794 2477 2118 1232 1224 672 978 547 498 807 1160 1016 782 603 692 790 994 961 605 1718 1440 892 1571 1568 1951 2953 3478 2953 3103 3117 2840 2982 3282 3424 3596 3694 3732 3652 3684 3915 4006 4093 4132 4304 4339 4269 4246 4218 4136 4192 4210 4246 4282 4267 4222 4193 4145 4031 4016 3748 3652 3750 3939 4086 4027 3857 3637 3666 3717 3818
2220 2267 1854 1991 2284 2355 2458 2428 2606 2722 2612 3340 3043 2402 2625 2727 2432 1568 1646 1258 564 612 1158 1014 248 430 836 1382 636 872 1306 668 1127 632 1585 1445 2001 1922 2017 2280 1948 2135 2989 3504 3168 3663 3302 3348 3432 3504 3634 3755 3798 3987 4122 4307 4467 4540 4684 4534 4484 4275 4369 4402 4361 4367 4278 4287 4230 4300 4349 4261 4231 4109 3976 4059 4159 4022 4014 3752 3661 3655 3726 3808 3845
2395 2415 1972 1926 2163 2513 2652 3146 2942 2804 2924 2861 2960 2710 2980 2903 2132 2577 1977 787 1021 616 532 739 736 570 680 540 440 774 957 1062 1468 1677 947 1485 1827 1899 2108 2099 2403 2284 2597 3009 3918 3421 3584 3767 3834 3754 3908 3914 4243 4314 4295 4478 4425 4570 4484 4438 4398 4365 4398 4372 4386 4392 4419 4399 4382 4424 4365 4305 4303 4202 4249 4117 4117 4124 4013 3947 3855 3676 3702 3615 3363
2532 2551 2504 2057 1954 2205 2553 2747 3577 2949 3034 3137 2771 2638 2582 2099 2953 2586 2225 2307 921 750 763 512 795 635 632 782 324 1105 848 1175 1738 1139 1181 896 1310 1090 1455 1940 1827 2246 2955 2455 3084 4058 4008 3603 4313 4282 3982 4116 4274 4345 4442 4643 4516 4241 4210 4260 4314 4350 4486 4514 4616 4714 4643 4572 4566 4509 4396 4471 4175 4412 4226 4065 4007 3896 3891 3879 3683 3449 3129 2562 1811
2734 2708 2800 1848 1869 1940 2336 2991 3341 3468 3788 3108 3123 2672 2786 2965 3534 3589 2949 2907 2032 1353 1168 1374 820 581 913 433 867 598 342 1203 1291 1138 1121 1497 1277 1508 1580 1282 1960 1921 1844 2055 1694 2445 3857 4214 4132 4163 4292 4682 4538 4595 4502 4276 4187 4166 4234 4116 4235 4541 4669 4790 4907 4916 4927 4862 4850 4666 4691 4597 4240 4001 3920 3846 3799 3794 3620 3266 2970 2174 1793 1688 1490
3459 3351 2690 2208 2338 2631 2652 3590 3371 3950 3498 3100 3073 3231 3342 3196 3156 3183 3516 3126 2489 1119 867 1274 867 1329 395 416 268 932 1335 640 1161 1088 1495 1553 1478 1323 1011 1463 1154 1403 1896 2016 2079 2168 2016 3609 4514 4511 4694 4054 5210 4525 4445 4355 4260 4042 3989 4149 4580 5043 5336 5306 5255 4908 4933 4956 4690 4569 4114 3983 4018 3903 3832 3808 3760 3472 3070 2647 1954 1708 1570 1499 1283
4647 4684 3852 2978 2557 2915 3307 3603 3444 3778 3798 2983 2804 3299 4164 4566 3936 4112 3374 2457 1804 1103 1007 959 479 782 508 518 999 1238 1671 1277 1170 1215 934 912 975 1115 1101 892 1161 1276 1252 1449 1373 1408 1522 2600 3597 2944 3626 3619 4091 4663 4786 4686 4336 3959 3785 4515 4937 5262 5260 5321 4851 4944 4870 4898 4410 3970 3860 3971 3890 3821 3762 3645 3465 3075 2558 1772 1558 1589 1209 1171 1026
4270 4227 3892 3670 3436 3449 3538 3618 3340 3728 3999 3759 4119 3604 3475 3854 3195 3909 3881 2624 1588 879 1194 1353 540 853 862 434 576 934 609 1689 1446 1075 752 1089 605 750 1020 722 628 792 641 1093 1331 1536 1987 2270 2365 2300 2673 4679 4296 5034 4520 3953 3918 3857 4263 4550 4908 5114 4933 4906 4652 4595 4863 4284 4078 4017 3965 3872 3841 3767 3439 3527 3179 2362 1834 1535 1574 1336 1196 1157 912
4011 4713 4468 4074 4341 3832 3950 3849 3829 3731 4238 3752 3468 3346 3963 4649 3840 4497 3254 2982 1656 1542 1647 1818 1183 526 455 619 776 1053 593 669 583 861 757 570 672 1060 797 1274 1031 1071 778 1120 1328 1458 966 1766 1679 1888 2707 2769 3324 4765 5092 4360 4129 4243 4703 4461 4480 4779 4532 4782 4509 4255 4340 4126 4218 4184 3915 3806 3770 3507 3221 3351 2745 1992 1639 1466 1294 1316 1164 1079 811
3830 3732 3892 4367 3925 3793 3510 3814 3764 3489 3684 3802 3611 3912 4679 4402 4123 4109 3759 2002 1275 1674 2261 2714 730 974 1125 570 504 570 801 951 604 531 921 542 642 614 857 692 666 872 900 863 931 954 889 1119 1992 2505 2838 2809 2394 2730 3992 2968 4286 3698 3584 3745 4082 4606 4131 4359 4582 4205 4238 4290 4199 4194 3916 3812 3539 3180 3045 2880 2316 1400 1499 1515 1480 1236 1248 1002 760
3274 3189 3374 4202 3980 3802 3412 3503 3598 4003 4255 4018 3948 4097 4066 4571 3966 3991 4480 3185 1532 1086 1467 2048 2524 1708 911 1396 381 341 960 1062 985 375 179 396 491 485 141 453 437 986 1248 1210 876 939 1221 1581 1745 2761 2742 2675 3184 2602 2566 3362 3874 3882 4002 3610 3481 3269 3972 4044 4369 4153 4333 4262 4180 4118 4063 3671 3523 3304 2696 2656 2225 1762 1238 1206 1237 1640 1654 1520 1228
2998 3206 3203 3675 4114 3844 3570 3472 3667 3592 3608 3426 4218 3563 4046 3344 4048 4204 3700 2606 1397 1566 1641 1731 2368 2576 2508 3105 1067 1665 1381 958 579 1086 820 569 528 462 120 624 885 1341 1647 836 845 711 1051 1012 1673 1569 2845 3711 3074 2590 2121 3552 4749 5134 4824 5203 4442 3855 3482 3926 3902 4124 4355 4404 4087 4202 3982 3565 3440 3020 2474 2489 2336 1944 1719 1605 1972 2042 2014 1871 1537
3102 3161 3158 3133 3637 3769 3344 3393 3437 3538 3928 3542 3760 3631 4292 3863 3857 3801 3682 3741 4191 788 1130 1580 1421 2078 1720 1669 1455 1072 1558 628 778 1177 1257 718 0 14 288 400 452 1220 1170 685 890 1116 612 1062 1712 1727 1658 1855 2507 2851 2333 1981 3300 4146 5343 5712 4740 4229 4271 3143 3711 3909 4152 4342 4251 4261 3971 3750 3367 3083 2581 2478 2337 2276 2260 2286 2280 2287 2224 2145 1807
3080 3182 3175 3286 3383 3566 3522 3349 3409 3510 3835 3551 3176 3151 3034 3551 3738 4070 3931 3975 3952 2640 1856 1384 2148 1916 1751 1505 1643 1851 1034 1506 2051 2018 1165 913 627 456 268 405 534 702 838 915 833 523 692 190 976 1121 1782 1388 2512 2098 2393 2428 2533 2774 3158 4459 3041 5014 4623 2993 3220 3658 3943 4208 4278 4000 4290 3812 3598 3361 2935 2650 2587 2537 2485 2426 2451 2478 2356 2191 2111
2932 3346 3226 3153 3346 3394 3478 3556 3341 3293 3585 3850 3208 2904 3500 3839 3795 3706 3793 4315 3869 4153 3602 2131 1942 1983 1853 2149 1272 717 1154 909 1736 2432 2251 1736 937 575 538 390 575 626 480 325 478 241 448 450 508 552 1348 1405 2334 1389 2225 3048 3124 2929 3200 3154 3225 4654 4596 3932 3303 3739 3877 4230 4292 4216 4162 3985 3861 3509 3195 3090 2801 2627 2613 2609 2559 2587 2570 2323 2187
3063 3118 3114 3207 3063 3257 3338 3516 3388 3599 3204 3622 3366 3274 3175 3872 3786 4477 4637 4149 3404 3306 3692 3582 2838 2724 3000 2660 2344 2163 2016 1046 1206 901 1306 2018 569 373 839 454 380 436 390 547 499 530 462 508 601 630 1072 1765 1391 1977 2093 2778 3702 4260 3002 3269 3036 4187 4458 4402 3770 3755 4082 4182 4241 4189 4266 4194 3954 3652 3315 3019 3090 2972 2724 2619 2635 2590 2632 2543 2334
3276 2998 3276 3095 2957 3158 3093 3167 3064 3243 2577 3185 3670 3499 3869 3470 4155 4646 4996 4009 3675 3418 3050 3034 2951 3181 2591 2738 3246 1747 1893 2067 1943 1760 1036 1044 1054 812 1070 725 983 1047 574 538 505 212 431 588 434 522 586 1036 1321 2183 3057 2746 2104 855 2993 3357 3317 3666 4284 4000 3925 3749 3945 4165 4266 4106 4017 3967 3982 3763 3472 3224 2968 2996 3008 2874 2613 2657 2702 2642 2486
2815 3000 3223 3362 3006 3025 2991 2890 2730 3142 2930 3858 3262 2555 2518 2826 3349 3796 3857 4926 3983 3494 2868 2348 2850 2724 2383 2607 2088 2109 1522 1681 2042 935 1053 1548 819 851 1236 1222 636 1024 1700 761 492 477 506 661 639 880 881 1043 1357 1971 2871 2226 1732 1008 2460 2002 2456 3236 3798 4171 3788 3882 3433 3560 3936 4171 3910 3883 3855 3801 3628 3369 3129 2811 2903 2927 2910 2767 2840 2786 2679
2872 2984 2875 2793 3129 3007 2970 3067 2982 3516 2725 3356 3244 2044 2356 2792 3605 3046 3769 3351 3394 3184 3340 2745 2419 2544 1865 2163 1714 1966 2090 1183 1748 1859 1504 1163 775 745 991 1145 635 1153 1530 1199 946 1054 861 592 1225 1046 1462 922 1414 2212 1663 1611 1233 2034 2732 2559 2649 2632 3348 4244 4613 3862 3447 3201 3165 3403 3697 3781 3817 3871 3780 3458 2981 2635 2693 2780 2826 2864 2871 2877 2779
3210 2887 2698 2585 2926 3285 2842 3304 3022 3334 3279 3433 3935 3847 3796 3234 3492 3134 3947 2918 2764 3269 3226 2877 2814 3161 2535 2506 2117 2054 2131 1918 1612 984 1505 1112 1809 1164 1211 854 1102 1058 980 848 1398 646 532 947 829 1658 1601 1195 835 1433 1972 1630 1945 4130 2480 2180 2028 2952 3349 3689 4549 3964 3550 3209 3317 3440 3342 3261 3268 3229 3446 3451 3081 2629 2524 2605 2672 2741 2802 2879 2844
3134 2946 2629 2756 2904 3114 3124 3297 3361 3218 3542 3936 4018 3262 3794 3848 3258 3460 3454 2931 4140 3344 2897 2748 2668 2434 1936 2468 2370 1942 1516 2163 1867 1397 1370 1254 1676 1625 1922 1560 1122 1216 670 1186 1115 884 750 615 1292 2286 1867 1837 1552 1661 2713 2168 2472 3230 2234 2138 2017 2127 3237 3418 3468 3478 3131 3066 2998 2942 3062 3168 3286 3347 3306 3237 3104 2722 2445 2487 2553 2609 2659 2726 2836
3125 3249 3101 2979 3277 3510 3221 3540 3403 3394 3482 3846 3339 3459 3799 3714 3632 3364 3983 4068 3442 3284 3714 2994 2071 2308 2089 1697 1700 1455 1561 1277 1398 1527 1743 1377 1627 1960 1760 1881 1820 1096 841 828 602 684 665 957 709 2279 2799 2918 2101 1763 1020 1124 2718 2362 1596 2802 1299 3643 3224 2930 3058 2539 2575 2572 2682 2557 2819 2928 3050 3134 3289 3401 3338 3193 2828 2418 2453 2491 2536 2601 2756
3012 3262 3846 3535 3642 3925 3428 3461 3710 3348 3507 3352 3310 3464 3793 3642 4342 4137 3171 3189 3636 3766 3323 2793 2433 1901 1674 1636 1258 1071 1190 1928 1730 1757 1966 2253 1448 1723 1749 1684 2309 2074 1698 1302 1234 841 730 543 446 1070 1748 1756 2055 1679 1170 1272 1238 1886 1463 2157 2107 2402 3561 2669 2256 1953 1969 2075 2172 2208 2333 2605 2706 2770 2985 3152 3217 3257 3126 2928 2590 2385 2408 2453 2623
2950 3134 3272 3795 3676 3679 3262 3112 3408 3407 3256 3396 3270 4416 5143 3877 3774 4110 3566 3576 4515 4146 3420 3391 2826 2255 2361 2760 2144 1795 1471 1440 1453 1124 2327 2387 1930 1796 1558 2031 2731 2663 2413 2318 2154 1421 1175 844 696 762 1040 1539 1881 1722 1540 1393 2180 1730 1490 1862 1953 2428 4463 2040 1940 1959 1921 2159 2256 2187 2177 2156 2140 2400 2551 2684 2890 3010 2994 2881 2691 2326 2308 2413 2588
2468 2208 3136 2856 3788 3723 3581 3484 2816 3218 3384 2911 3107 3909 4089 3546 4377 4478 3866 5211 5358 4719 4284 3884 3629 3391 2651 2463 2592 2403 2478 1927 1732 1464 2537 2885 2008 1754 1594 2356 2788 2519 2619 2673 2900 2250 1566 1061 807 776 1834 1278 757 1510 775 1261 2507 2885 1724 1844 2247 2268 1996 1758 1633 1904 2158 2316 2425 2305 2185 2063 2098 2199 2117 2174 2287 2395 2514 2681 2610 2289 2232 2403 2506
2815 2720 2680 2680 3928 2963 3359 3907 3703 3172 3343 3531 3296 4104 3785 3328 3937 3953 3503 3623 3466 3983 4596 3964 3243 2836 3601 2987 2892 2435 2734 2518 2042 1503 1741 2759 2934 2626 2330 2436 2807 2869 2792 3047 2956 2741 1648 1359 1294 987 1089 1064 898 961 1028 1392 1924 1706 1463 2165 2268 1516 1386 2124 1645 1663 2139 2499 2584 2424 2146 1899 1847 1606 1409 1405 1430 1582 1788 2105 2288 2248 2167 2242 2293
2069 3005 2549 2783 2979 2379 2748 2912 2865 2790 2948 3025 3204 3880 3339 2994 3467 3043 3096 4401 4604 3844 3665 3479 3194 3545 4578 3887 3804 3152 2983 3117 3340 2747 2044 1838 2623 2822 2472 2469 2280 2400 3347 3434 3231 2925 2211 1552 1503 1051 1116 1707 1180 1080 1539 1364 757 1168 2014 1709 2568 1873 3193 1411 1008 1763 2204 2975 2708 2297 1941 1705 1454 1311 1149 1058 1135 1244 1482 1756 1963 2078 2082 2094 2076
1797 2325 2139 2690 2671 2629 2404 2309 2582 2361 3203 2967 3077 3838 3326 3776 3893 3624 3993 5181 4330 3666 3939 3716 3262 2976 3519 3290 3206 3022 3064 3031 3139 2776 2451 2390 2420 2138 2514 2787 2437 2222 3086 4094 3798 3130 2843 2530 2026 1578 1837 1583 1124 1471 1088 1005 1138 1096 1109 1834 1772 1293 792 340 387 599 2052 2967 2581 1937 1591 1233 979 929 918 809 906 1061 1278 1546 1772 1866 1949 1990 1909
2484 2132 2247 2418 2640 2425 2625 2488 2460 2986 3420 3814 3397 3411 3644 4346 3409 3153 2475 3172 3760 3481 3964 4278 3441 2975 2830 3243 3085 2724 2946 3132 2956 2423 2267 1771 1906 2000 1995 2084 2186 3056 3408 3918 4644 4151 3151 2699 2130 2123 1513 1186 1049 744 1075 1074 1064 1347 926 932 935 639 323 332 585 492 1731 2708 1627 1616 1071 689 708 762 784 785 699 852 1088 1340 1547 1693 1820 1868 1782
2444 2335 2238 2059 2052 2654 2333 2456 2881 3229 3720 2925 2862 3109 3317 3777 3768 3391 3133 3488 3139 3078 3274 3158 2852 2808 2729 2845 2680 2522 2246 2104 2691 2746 2521 2446 2246 2215 1895 1981 1831 2053 2207 2518 2691 2585 2437 2480 2168 1517 853 902 1082 1151 1059 675 1262 1031 1164 632 487 469 414 277 233 280 2251 2092 1002 941 686 711 784 732 661 653 761 760 819 944 1178 1498 1685 1725 1644
1955 2345 2411 2121 2521 2927 2660 3425 3038 2914 3633 3000 2660 2893 3677 4221 4103 3571 3074 3097 3057 2927 2490 2362 2347 2379 2236 2457 2349 2223 2401 2628 2664 2007 1619 1142 1143 2143 2595 2720 2679 2329 2158 1906 1902 2238 2311 2181 2230 1658 1849 2193 2132 1408 726 456 370 574 686 617 263 206 240 230 292 187 1817 1082 1217 632 526 805 875 827 677 657 769 724 862 660 755 1022 1249 1376 1483
1832 1937 2232 2368 3102 2990 2398 3298 3655 2927 3958 3148 2940 2993 3122 3199 3102 2860 2816 2638 2489 2245 2010 1984 1927 2055 2052 2083 1782 1502 1948 1983 1993 1727 1415 1635 1794 1597 1117 706 897 1001 1040 1137 1336 1243 1645 1821 2012 2336 2129 1931 1567 1018 922 925 989 829 785 1090 661 601 715 650 349 191 141 19 60 166 406 693 784 633 725 836 816 788 1056 1113 870 647 673 884 1086
1276 1807 2005 1995 2745 3206 2450 2862 3109 2993 3079 3381 3239 3188 2977 2993 2853 2638 2405 2448 2083 1966 2020 1758 1766 1715 1552 1637 1510 1359 1394 1392 1334 1114 1359 1420 905 622 636 864 1024 1044 1038 1057 1151 1474 1320 1760 2000 1552 1506 754 800 951 752 581 382 326 516 1123 1242 960 872 750 938 953 378 297 574 556 513 1081 1791 2171 1087 738 662 780 1060 1178 1111 984 834 663 592
1090 1209 1840 2038 1944 2638 2408 2801 2864 3358 3470 2989 3564 3470 3008 2935 2562 2614 2129 1480 1644 1506 1538 1137 813 831 906 920 966 1020 1072 1073 1023 871 975 1092 942 626 602 747 762 866 669 562 379 339 414 461 464 411 352 231 294 513 569 753 896 738 986 699 1301 878 1416 1803 2288 1301 985 1038 1328 1099 634 500 407 915 1153 890 913 912 1091 1314 1231 1190 1107 884 644
565 630 729 1189 1822 1998 2308 1958 1933 2338 3012 2787 2862 2987 2916 2635 2114 2062 2066 1551 1205 1202 883 769 660 460 388 370 270 305 459 784 1016 1181 986 579 637 647 511 493 648 985 1229 937 656 693 1023 765 597 359 458 1308 1351 736 346 525 842 1043 647 442 848 1401 1482 2303 1451 1630 2251 2156 1918 1092 698 554 779 1390 1316 1238 1532 1795 1990 2140 1663 1409 1317 987 653
258 266 260 274 455 1078 1364 1330 1382 1228 1101 1700 1725 2152 2418 2413 2321 1836 1545 1623 1421 1041 814 612 472 519 333 204 170 113 477 530 563 1818 2615 2338 1676 1740 1804 1794 1915 2113 2493 2411 2171 1904 1729 1382 1741 1635 1273 1488 1228 1111 211 210 471 575 341 314 817 704 980 1304 2133 2050 2174 2106 1720 1332 1578 2010 1954 2086 1891 2618 3417 2006 1580 1565 1643 1519 1433 1279 863
305 259 226 222 225 147 503 730 857 675 478 457 1168 1636 1998 2869 1872 1256 834 1102 1226 982 892 851 544 332 350 265 189 1090 2648 489 1040 2535 1833 1949 2529 2066 2114 2428 2588 2781 2829 2832 2690 2218 1760 1474 950 514 249 127 68 220 159 139 321 346 411 836 958 1110 1748 2080 2707 2631 2618 2193 2126 2554 2492 2502 2218 2301 2773 2775 2073 2744 1566 2029 2159 2068 1720 1360 982
790 660 452 209 174 149 135 247 488 506 508 618 1518 1159 1278 1287 1876 1744 1695 1964 2114 1912 1652 1502 1513 1050 500 279 288 2524 2682 3206 2965 3208 3344 2813 2755 2234 1651 1552 2376 3051 2400 1921 1884 1809 1778 1494 1026 546 257 450 376 320 263 237 198 275 838 1638 1825 2482 2960 2820 2833 3207 3114 3148 3503 3154 3227 2988 2682 2855 2766 2487 2184 1964 1427 1921 2132 1411 1405 1171 1069
1544 1072 674 805 646 206 52 71 108 182 451 792 1411 1264 1313 1416 1590 2079 1231 1005 802 932 1339 1226 886 794 644 417 190 157 197 537 1154 3938 3753 3159 2302 2137 1841 1729 1575 1314 1598 2886 3146 2562 2124 1577 1355 1159 708 644 912 942 396 297 1388 2144 2898 3152 3561 3316 3192 3133 3067 3010 3501 3141 3412 3614 3098 2970 2509 2666 3005 2658 1984 1420 976 3026 1253 1365 1443 1531 1503
2454 2325 1854 1533 1315 1181 468 146 32 56 1324 671 1016 1161 1335 1276 1149 1076 1132 914 793 540 470 591 698 829 812 676 488 376 95 1804 812 1037 3160 4258 2947 2357 2247 2038 1633 1395 1261 1012 788 2308 2770 2806 2304 1936 1512 1590 1902 1806 1503 2333 3190 3430 3651 3408 3421 3388 3326 3289 3299 3092 3622 4102 3517 3171 2915 2723 2760 2861 2449 2050 2081 1918 1336 1097 1303 1685 1766 1715 1670
3706 3620 2981 2107 1680 1546 1284 931 578 452 996 999 562 787 864 864 838 755 1049 999 820 726 581 445 288 314 812 774 635 447 356 716 1519 563 1019 2020 2245 4052 4141 3590 3228 3346 2697 2102 1541 1089 1028 1441 2052 2315 2313 2607 2876 3020 3214 3622 3280 3523 3399 3020 3173 3095 3081 3004 2961 2876 2971 2874 3078 3049 3208 3122 3030 2352 1962 1564 1535 1434 1820 2487 1367 1558 1612 1647 1631
3681 3844 3409 2550 2468 2402 2562 1783 1608 1428 1245 1119 1018 890 941 836 770 761 1220 1342 988 722 592 385 874 173 494 432 803 768 1024 1447 2596 3953 2104 1983 2694 2924 3103 2709 2511 2151 2351 3070 3045 2972 2405 1808 1506 1781 2093 2422 2861 3037 3008 3193 2627 2558 2331 2364 2247 2176 2110 2240 2178 2265 2236 2219 2984 2868 2622 1989 1065 1377 1551 1179 1054 1240 1896 1947 1680 1619 1717 1682 1572
2569 1884 1767 1790 1630 1840 2092 1946 1026 945 1392 1401 1246 1111 1073 1048 927 1030 1647 2071 2141 1770 1348 1105 1007 1353 1728 1609 1623 1673 2055 3112 2495 2563 2691 3044 2966 2738 2503 2429 2268 1982 1748 1370 1053 1111 3558 3650 2992 2610 2872 2666 2344 2349 2386 2164 1667 1904 1820 1670 1595 1870 2112 2141 2125 1911 1804 1449 1332 1620 1458 1537 1575 1636 1780 1788 1607 1780 1888 2419 1828 1640 1663 1720 1584
1666 1512 1542 1384 1400 1272 1294 1368 1184 1377 1178 1289 1320 1196 1078 1010 920 1433 1900 1970 1940 1704 1708 1921 2373 2057 1557 1520 1441 1232 1299 1769 2349 2657 2677 2443 2292 2436 2554 2392 2146 1807 1891 1840 2366 1589 1407 1350 1922 2220 2138 2143 2099 1914 1976 2070 2105 2094 2110 2001 2009 1588 1584 1876 1764 1808 1896 1425 1375 1857 2056 2250 2232 2278 2361 2409 2294 2228 2130 1665 2039 1682 1713 1607 1584
1084 1231 1139 1229 1179 1069 1142 1144 942 1191 1255 1197 1304 1275 1184 1022 997 1322 2202 2439 2453 2557 2151 2499 2556 2002 1835 2044 1713 1694 1822 1996 2001 2052 2083 1970 1924 2314 2377 2016 2428 2465 2518 2654 2610 2741 2302 2232 2104 2124 2005 2001 2171 2312 2315 2197 2231 2334 2073 1918 1882 1918 1699 1898 1937 1967 1841 1850 1790 1808 2767 2328 2271 2330 2370 2213 2266 2463 2105 2025 2436 2676 2374 1983 1658
831 780 719 742 861 807 890 850 1106 946 1023 1142 1081 1041 1006 965 876 810 1632 1732 1841 1882 2266 1705 1709 1486 1209 982 1047 1342 1476 1428 1353 1312 1215 1074 1302 2034 2041 1923 2074 1974 2084 1816 2143 2480 2496 2231 2484 3612 3882 3082 3608 3586 2804 2670 2225 2040 1780 1603 1625 1574 1704 1744 1928 1999 1995 2054 1716 2460 2356 2377 1972 1997 2038 1490 1480 1418 1939 2098 2321 2640 2127 2191 2784
Wind_Speed
9 10 8 10 12 11 12 13 13 14 15 17 17 15 15 17 18 19 21 21 20 18 18 15 14 13 11 9 9 9 9 9 10 12 10 9 10 9 12 13 14 16 17 19 19 20 18 20 18 18 18 19 20 20 20 21 21 21 22 24 25 26 26 26 26 25 25 25 25 24 24 24 23 24 24 24 24 25 26 26 27 26 25 24 24
10 11 11 10 11 16 16 16 18 18 18 16 17 19 19 20 21 21 20 22 21 20 19 16 11 11 11 9 7 6 8 9 10 10 11 10 9 9 12 13 15 17 19 20 20 20 20 19 19 19 19 20 20 20 21 21 22 22 24 25 26 26 25 25 26 25 26 26 25 25 24 24 24 24 24 24 24 25 25 25 26 25 24 24 24
11 12 13 14 12 12 14 17 21 19 18 18 19 20 21 22 23 21 20 19 19 16 14 13 11 8 9 7 7 8 8 9 10 10 8 10 9 9 11 13 15 17 19 20 20 20 20 20 20 20 20 21 21 21 21 22 23 24 24 25 25 25 25 25 26 26 26 26 26 25 25 24 24 24 23 23 23 23 24 25 25 25 25 24 22
13 14 15 16 16 17 17 18 19 19 19 20 20 21 21 21 20 22 19 17 16 15 14 12 11 10 9 9 7 7 10 11 9 11 9 9 12 10 10 11 15 17 19 20 20 20 19 20 20 20 20 21 21 21 22 23 23 24 24 24 24 24 25 25 26 27 27 27 26 25 24 24 23 22 22 22 22 22 23 25 24 24 24 23 23
15 16 17 18 18 19 18 18 19 19 18 20 20 20 19 19 18 19 18 17 15 13 13 10 12 11 9 6 6 8 9 9 10 10 8 9 11 12 11 11 11 15 17 18 19 20 19 20 20 20 20 20 21 22 22 23 23 24 24 24 23 24 24 25 26 27 27 27 26 24 23 22 20 20 20 20 21 21 22 23 23 23 22 21 21
17 18 18 18 19 18 18 18 19 18 18 20 20 19 18 18 17 16 15 14 15 13 12 10 9 9 8 7 8 9 10 11 10 10 13 8 11 12 12 12 12 11 13 17 18 18 19 19 20 20 19 19 20 20 21 21 22 22 22 22 22 23 24 24 25 26 26 25 24 23 21 20 19 19 19 19 19 19 20 20 20 19 19 19 18
19 20 19 19 19 19 19 19 19 19 18 17 23 18 16 16 15 13 13 14 14 13 13 10 7 9 10 11 7 11 12 11 15 10 11 11 13 13 15 14 12 12 12 11 14 17 17 18 19 19 18 18 19 19 19 19 19 19 19 19 19 20 21 21 22 22 23 22 21 20 20 19 18 18 18 17 16 17 18 19 18 18 17 15 14
20 22 21 19 18 18 18 18 18 19 17 18 20 16 15 15 13 12 12 12 13 10 9 9 8 6 8 8 8 10 10 11 12 14 6 11 10 11 12 12 14 13 16 11 8 10 15 15 16 16 17 17 17 17 17 16 16 15 15 15 15 16 16 17 17 18 19 19 19 19 18 17 16 16 15 15 16 17 17 17 17 16 14 13 12
20 22 21 19 17 17 16 15 18 16 18 17 17 15 14 11 14 12 10 12 13 8 8 8 7 7 7 6 7 13 8 12 11 8 9 11 12 8 10 9 9 9 11 11 10 6 10 13 13 15 15 15 15 15 15 14 12 12 11 11 11 11 12 13 14 15 16 17 18 17 16 15 15 14 14 14 15 15 16 17 16 15 13 13 13
19 20 21 17 16 15 14 14 15 15 16 16 14 13 13 12 11 11 10 10 10 10 8 10 9 6 8 3 10 9 7 11 9 11 8 11 12 11 11 8 8 10 12 12 9 10 5 9 13 12 12 12 12 12 12 10 9 9 9 8 8 9 10 11 12 13 14 16 16 14 13 14 14 14 14 14 14 16 17 16 15 14 12 12 12
17 18 17 15 14 13 12 13 12 13 13 12 11 11 11 10 10 9 11 10 9 10 10 11 10 11 4 4 7 11 11 8 10 10 11 11 9 11 6 11 8 9 8 9 9 10 11 5 7 7 8 12 11 10 8 8 7 6 6 6 7 7 7 8 9 10 11 12 13 12 13 14 14 14 14 14 15 16 16 15 13 12 10 10 10
15 15 16 13 12 11 10 11 10 10 11 10 8 7 7 8 9 9 9 9 10 7 8 8 6 8 9 5 7 9 11 10 10 9 9 7 8 10 7 6 5 6 5 3 11 5 7 5 8 6 1 7 10 9 9 7 6 6 5 5 4 4 5 7 7 8 8 10 11 12 13 14 14 14 14 15 16 16 16 14 13 12 10 9 10
12 13 12 12 10 9 8 8 8 7 8 7 6 5 6 7 6 8 8 7 7 4 7 9 5 5 6 5 5 6 7 10 13 10 9 10 4 8 11 7 5 6 8 7 6 6 3 6 6 5 4 2 5 8 8 7 7 6 6 6 5 5 6 7 8 7 7 9 11 13 14 14 14 15 16 16 16 16 16 14 13 12 11 9 10
11 11 10 9 8 7 6 6 6 5 6 5 4 5 5 6 3 9 8 7 8 9 8 10 7 4 4 4 5 6 8 10 11 9 10 7 4 7 6 10 3 2 4 4 0 4 2 4 4 5 6 5 2 5 5 6 7 6 7 6 5 5 7 7 7 7 7 8 11 13 14 14 15 16 17 17 17 17 16 15 14 14 12 12 12
9 9 8 7 6 5 5 4 5 4 5 5 5 4 5 3 3 4 9 7 4 6 4 11 6 7 7 5 4 1 10 12 13 8 11 3 7 4 6 1 7 9 3 2 5 7 8 3 4 5 4 4 5 3 6 7 9 8 7 6 6 6 6 7 7 7 7 9 11 13 14 15 16 17 18 18 18 17 16 16 16 15 14 14 13
7 6 6 5 4 4 3 3 4 4 5 5 4 4 4 3 2 2 7 11 3 5 6 10 11 6 5 5 4 2 6 9 8 5 4 7 9 2 2 2 7 5 6 1 4 4 1 2 3 3 3 5 5 3 6 7 11 10 9 9 9 8 8 9 9 9 10 11 13 14 15 16 18 19 19 20 19 17 16 17 16 16 15 15 14
5 6 4 3 3 3 2 3 3 5 5 6 6 4 3 1 2 4 2 7 7 6 7 6 6 10 10 10 4 8 11 5 5 11 15 8 4 2 8 6 8 4 7 9 5 0 7 5 8 5 4 3 6 6 9 8 6 4 7 10 11 11 10 10 11 11 12 13 15 16 17 18 19 19 20 20 20 19 18 17 16 16 16 16 15
5 4 3 1 1 1 2 3 4 4 5 3 3 2 4 3 2 4 4 4 8 4 4 6 6 4 6 7 8 4 8 9 8 9 10 12 nan nan 2 4 4 0 4 1 2 4 4 7 9 9 10 12 12 10 9 6 5 2 3 8 12 12 13 13 12 12 13 14 15 17 18 20 20 19 20 20 20 21 20 18 17 16 16 16 16
3 3 2 1 1 0 1 3 4 5 4 4 5 7 3 1 2 3 4 7 8 9 8 7 8 7 6 6 10 9 4 7 10 11 9 9 11 1 2 1 3 3 3 3 5 6 8 6 7 10 15 10 11 7 12 12 6 6 1 9 12 13 14 14 15 14 15 15 16 17 19 20 20 20 21 22 22 22 21 18 17 16 15 16 16
3 3 1 2 1 2 2 3 5 6 5 5 5 3 1 0 1 3 4 5 6 8 10 9 6 8 10 9 4 5 8 8 6 2 4 9 7 9 3 2 5 6 5 5 7 7 8 8 12 10 14 11 11 7 9 13 13 10 9 13 13 14 14 15 15 16 15 15 16 18 19 20 20 22 23 23 24 23 21 19 18 17 15 15 16
2 2 2 3 3 3 4 4 4 5 6 5 5 4 4 2 2 1 3 4 5 6 7 8 7 7 7 8 8 8 6 3 1 5 7 6 5 4 6 6 5 7 7 12 11 11 9 12 6 7 10 12 9 8 8 6 11 10 11 14 14 13 13 13 14 15 15 16 17 18 19 20 21 22 24 25 25 23 22 21 20 17 16 16 17
3 3 3 3 4 5 5 6 6 6 6 5 4 3 4 4 3 3 4 5 5 4 5 6 8 9 6 6 6 5 7 6 6 7 6 3 6 8 12 10 6 7 7 6 5 5 5 4 7 10 4 8 8 9 8 8 7 5 11 15 12 11 12 13 13 14 15 17 18 18 19 21 22 23 24 25 24 24 24 23 21 18 17 17 17
3 3 4 4 5 5 6 6 6 5 5 3 6 6 6 6 4 1 2 3 4 4 4 3 4 4 3 3 2 1 3 3 4 6 7 7 5 6 9 6 7 3 3 3 5 4 3 2 9 11 6 6 8 10 9 8 9 9 14 12 11 12 12 12 13 14 15 17 18 20 21 21 22 23 23 24 24 24 25 26 23 20 19 19 18
2 3 3 6 7 5 5 5 5 4 5 5 6 4 5 4 5 4 4 3 2 3 5 5 3 3 2 2 2 1 4 1 3 4 5 7 5 3 5 8 5 7 1 4 2 3 9 6 9 10 9 6 7 10 7 6 6 16 10 8 12 13 12 12 13 13 15 16 18 20 21 21 21 22 23 23 23 24 26 27 26 24 21 20 19
3 3 4 5 7 5 5 3 3 4 3 4 3 2 4 9 5 7 5 5 4 2 3 2 2 3 2 2 1 0 2 2 2 3 4 6 6 6 5 5 3 5 5 2 4 5 3 10 9 10 10 7 6 7 5 5 7 14 8 2 9 11 13 12 12 13 14 16 18 19 20 20 20 20 21 22 23 25 26 28 28 27 24 21 20
5 4 4 5 6 5 3 2 2 2 2 3 3 4 3 5 7 6 7 5 4 3 4 4 2 3 3 1 1 2 1 3 4 4 3 6 7 5 7 6 2 3 5 4 6 4 7 9 13 10 12 8 5 6 6 4 5 14 7 1 5 11 14 13 13 13 14 14 15 17 17 18 19 21 23 24 25 26 27 29 29 29 27 24 21
4 5 4 5 3 3 1 2 1 2 1 3 3 3 4 5 5 4 3 4 5 4 4 4 3 0 1 2 2 2 3 3 3 5 6 6 9 6 6 6 5 4 4 5 4 5 6 11 11 17 11 9 6 2 1 2 6 12 3 1 4 11 12 13 13 14 14 13 15 15 15 16 18 21 23 25 27 28 28 29 30 31 30 27 24
6 5 4 4 4 3 2 1 1 1 1 2 3 2 3 3 2 3 4 3 4 4 4 3 3 4 2 2 2 1 3 3 5 5 7 9 9 6 8 7 7 6 6 5 6 5 7 7 8 10 11 8 4 3 4 3 2 9 5 2 3 3 12 12 14 14 13 13 13 14 15 16 19 21 23 25 27 28 29 29 30 31 31 31 28
6 5 4 4 4 2 2 2 1 0 1 1 1 0 1 2 3 2 3 2 2 1 1 1 2 1 3 5 3 3 3 5 4 5 10 10 6 8 7 7 10 7 6 7 7 8 7 7 7 10 11 7 5 3 5 3 8 4 4 3 1 2 14 4 2 7 11 13 13 14 15 17 19 21 22 24 26 27 29 29 29 29 31 32 31
4 7 5 5 5 2 4 2 3 2 2 3 3 3 2 1 3 2 3 2 2 2 2 1 1 3 4 3 6 5 6 5 6 6 10 9 8 7 8 9 9 7 8 7 8 7 8 8 7 7 10 9 5 7 5 5 15 2 4 3 2 3 5 6 9 9 11 13 13 14 16 16 18 20 22 23 25 26 28 29 29 30 31 32 32
6 8 4 6 6 5 4 5 5 4 4 4 5 4 4 2 4 3 4 5 4 4 3 4 3 3 5 5 6 5 6 6 6 6 8 9 9 9 9 9 8 9 7 8 7 10 9 7 6 7 8 7 8 6 5 6 5 4 5 5 5 5 4 7 13 13 12 14 14 15 16 17 18 20 22 24 25 26 27 28 29 30 31 32 32
7 7 6 5 7 6 7 6 7 6 6 5 5 6 4 4 3 2 6 7 6 4 3 4 4 6 6 5 6 6 6 6 6 6 7 8 9 8 8 9 8 8 9 8 8 7 7 5 6 5 5 8 7 5 8 3 5 4 6 7 5 2 3 3 5 13 14 16 15 15 16 17 18 19 22 24 27 27 28 28 28 29 29 30 31
8 7 7 6 7 6 6 8 7 9 8 6 6 7 6 5 4 2 5 6 4 3 5 4 4 5 6 5 5 5 6 5 6 5 5 7 7 8 10 10 10 8 10 9 7 7 7 6 3 3 6 7 6 7 5 6 4 7 9 6 7 4 2 1 1 4 14 16 15 15 16 17 17 19 22 24 27 28 29 29 28 28 29 29 30
9 9 8 8 8 8 6 8 8 11 10 8 7 8 7 6 5 5 4 4 3 2 3 4 5 4 6 7 6 6 8 8 6 5 5 4 6 5 6 9 12 12 12 8 7 7 6 6 4 5 4 6 5 6 5 4 5 6 8 8 5 3 1 1 4 4 18 16 16 17 17 16 17 20 22 24 27 29 30 29 28 28 28 28 28
10 8 10 8 10 8 6 9 8 9 10 8 7 7 8 6 5 3 5 6 5 4 5 5 5 6 6 6 7 7 8 9 9 8 5 5 5 5 5 6 6 7 7 8 8 6 5 5 4 3 5 6 4 3 2 3 3 5 6 7 6 4 1 2 3 2 21 17 18 17 18 18 18 21 23 25 26 28 29 29 29 28 28 27 27
12 10 10 9 12 9 8 9 9 7 9 7 7 7 7 7 6 5 4 4 5 4 4 4 5 6 6 6 5 5 5 6 6 5 5 6 5 6 6 5 6 5 6 6 7 6 5 3 2 2 5 4 2 2 4 5 9 9 9 6 4 1 1 4 3 3 17 18 17 17 17 18 19 21 22 24 26 28 29 30 29 29 28 27 26
12 14 12 11 13 11 8 10 9 8 8 8 7 6 7 7 7 6 6 6 6 5 5 5 4 5 5 5 5 5 6 5 6 6 5 7 8 6 5 5 5 5 5 5 4 4 5 4 3 1 1 1 2 4 6 9 9 7 6 6 4 1 4 4 3 2 2 nan nan 15 16 18 21 20 21 23 26 28 29 29 29 29 29 28 27
12 13 15 12 13 12 9 10 10 10 9 9 8 6 6 7 8 6 7 7 6 6 6 7 7 6 5 6 6 6 5 5 5 5 5 5 5 6 6 6 5 5 5 6 7 8 7 6 5 4 3 4 4 3 5 7 9 8 6 3 2 4 7 7 6 4 3 1 3 2 11 17 19 21 21 23 25 27 28 29 30 30 30 29 29
14 14 16 14 15 14 12 10 11 12 11 10 10 9 7 7 7 8 7 8 7 7 7 7 7 8 7 7 8 7 6 6 5 6 7 8 8 7 8 7 7 8 7 7 6 5 5 4 4 4 3 3 3 6 5 5 4 3 3 4 6 7 9 10 8 6 4 2 1 6 8 6 5 11 19 23 24 27 28 29 30 32 31 31 30
14 16 15 16 16 15 15 12 11 12 12 10 11 9 9 7 8 9 8 7 7 7 7 8 8 8 8 8 8 8 8 8 9 7 7 7 8 8 8 8 8 7 6 6 6 5 4 3 2 1 1 1 1 2 3 1 2 5 7 7 8 11 11 12 10 6 5 3 3 3 3 4 8 13 15 19 23 24 26 28 31 31 33 32 31
17 17 17 16 16 15 14 13 12 12 12 12 11 11 10 9 6 7 8 8 8 6 6 5 7 9 7 6 8 7 8 11 10 10 10 14 11 9 9 9 8 8 8 8 8 8 8 6 5 5 4 5 4 3 3 5 7 9 10 9 12 11 11 10 11 8 5 2 4 5 6 5 3 4 4 5 12 22 23 26 23 30 30 31 31
18 18 18 18 17 16 16 15 14 13 13 12 13 13 13 12 11 9 8 9 8 7 8 8 6 6 7 6 4 11 15 13 15 16 13 8 11 9 10 11 10 10 11 10 10 10 10 9 8 8 7 7 nan 9 10 9 10 12 12 13 11 11 11 10 11 11 9 5 3 6 8 7 5 5 7 8 7 10 9 17 20 21 26 30 30
19 19 19 17 18 17 16 16 16 16 15 22 25 24 21 18 12 12 11 10 10 9 8 9 8 7 7 7 5 16 21 20 15 16 12 13 11 9 8 9 10 11 11 10 12 12 11 11 12 12 11 12 13 13 13 12 14 14 13 12 10 11 12 10 8 11 15 10 7 6 9 9 8 7 10 10 9 9 10 14 28 25 29 29 29
21 19 20 18 18 18 nan nan 18 17 25 29 31 30 30 26 22 16 12 12 12 11 10 9 9 9 8 7 7 8 8 10 12 15 14 12 12 10 10 9 9 8 9 10 11 11 11 11 11 12 12 13 14 15 14 14 16 15 14 13 12 11 10 9 8 9 15 13 9 7 7 11 11 9 10 11 13 12 11 24 28 28 28 29 29
21 21 20 20 19 19 18 18 nan nan 34 31 33 34 32 30 27 21 16 14 12 12 11 10 10 10 10 10 10 9 nan 22 14 13 14 14 13 11 11 10 9 9 8 8 8 9 9 10 10 10 11 12 12 13 14 14 15 13 13 13 12 11 9 7 7 9 13 17 12 7 6 11 14 13 11 13 13 13 14 22 27 29 28 28 28
24 22 21 20 20 21 21 22 24 31 35 33 33 34 33 32 29 22 18 15 14 13 13 12 11 11 13 12 11 11 9 11 11 11 14 10 10 12 12 11 10 10 11 11 11 12 12 11 11 11 12 13 12 13 13 14 12 12 11 10 12 11 9 7 7 9 11 15 14 10 8 11 14 12 13 14 13 14 15 23 27 27 27 26 25
24 25 27 28 26 24 24 25 31 40 34 35 36 34 34 30 29 24 20 17 15 15 15 14 15 12 12 12 13 12 14 13 20 22 15 12 11 11 9 8 9 9 11 12 14 15 15 15 13 12 13 13 15 17 18 18 16 15 13 11 12 11 8 7 8 10 11 16 17 16 10 12 16 15 15 15 14 15 16 25 26 27 27 26 23
30 32 31 31 29 24 34 35 37 35 39 39 39 38 36 33 28 23 19 18 17 16 16 17 18 21 27 30 25 19 18 28 27 29 29 24 19 15 12 10 11 12 12 20 30 21 17 17 17 16 17 20 20 18 20 21 20 15 12 12 13 14 11 9 9 12 13 16 19 18 16 15 18 15 16 17 16 16 18 15 21 26 27 27 24
29 30 27 31 32 33 39 38 37 35 41 43 41 41 38 36 28 25 21 19 19 18 19 22 25 33 29 28 28 26 21 25 27 29 30 25 20 17 14 13 14 17 21 22 27 28 25 24 22 20 17 16 17 16 15 15 18 19 16 14 15 16 14 11 10 11 13 17 20 21 20 18 19 19 17 17 17 16 14 14 16 20 23 25 25
32 29 30 33 34 36 38 35 30 36 41 45 47 43 41 39 34 29 26 24 22 23 23 25 33 35 34 35 36 34 32 30 28 30 29 25 20 18 16 16 17 20 21 26 26 23 25 25 22 18 16 15 14 14 16 17 16 21 23 16 16 19 17 17 14 13 12 16 20 23 23 20 21 21 20 18 18 19 19 18 17 21 26 23 25
33 32 32 33 32 32 34 32 33 36 41 45 48 45 43 43 39 33 31 27 27 26 27 31 34 35 34 35 41 40 36 32 31 31 31 28 25 21 21 20 19 19 24 30 25 24 22 22 21 21 21 22 22 24 24 23 20 22 27 24 21 21 18 18 18 15 13 18 26 30 23 23 24 24 27 24 18 17 21 21 21 21 21 19 19
Wind_Direction
107 101 114 122 123 120 114 114 117 115 111 115 114 120 127 128 129 127 132 135 130 128 128 133 138 146 144 139 135 133 133 129 119 119 116 100 97 88 79 92 101 107 107 108 107 106 105 101 101 97 96 92 92 90 90 88 85 81 77 76 75 73 72 69 67 65 64 64 65 66 64 62 59 55 53 51 49 47 45 43 42 42 42 42 42
99 111 113 112 124 119 120 120 116 116 110 116 126 126 128 128 127 128 132 133 139 141 135 134 140 139 139 132 123 124 114 109 101 102 112 117 113 102 77 92 98 104 107 105 105 104 100 102 98 100 97 98 98 96 91 89 86 83 79 77 75 73 70 68 65 62 62 63 64 65 63 60 56 54 52 50 47 45 44 43 42 42 43 44 44
105 108 114 115 117 110 116 111 103 111 122 121 124 126 127 126 131 132 131 134 131 128 129 130 129 124 113 110 117 125 105 96 90 84 104 109 108 106 96 85 96 100 103 102 101 99 99 98 96 96 96 95 95 92 90 87 84 82 79 76 73 70 68 65 64 62 62 63 63 63 61 58 55 53 51 48 47 45 43 42 41 41 41 43 44
111 111 114 116 118 121 116 119 126 123 124 127 125 128 128 129 130 132 134 131 125 125 125 125 130 136 121 122 115 103 104 99 119 139 124 118 111 110 108 104 87 95 97 100 99 100 99 95 95 94 93 93 92 91 89 86 84 81 78 76 72 70 68 66 64 63 62 62 62 62 59 57 55 52 50 46 44 42 40 39 39 41 43 43 44
112 113 113 118 124 121 124 122 120 123 126 130 129 123 126 124 128 124 128 125 122 123 111 127 127 116 105 106 120 121 110 119 103 92 107 102 109 114 120 109 108 88 89 92 93 95 95 96 94 91 91 91 90 90 88 86 83 81 79 76 73 70 70 69 66 64 62 61 61 60 58 56 54 49 45 42 40 37 37 38 38 38 40 41 42
109 109 114 118 120 123 123 125 127 132 130 128 125 122 128 128 124 129 128 124 120 120 122 109 102 104 114 116 116 107 101 114 117 118 108 129 138 127 121 124 116 110 104 84 87 86 90 91 90 90 91 90 91 90 88 86 84 82 80 78 77 74 73 71 66 63 61 59 58 58 56 54 49 45 41 37 34 34 32 30 32 34 36 40 40
115 115 119 123 122 125 127 128 130 128 132 128 117 126 121 122 129 128 131 126 130 126 122 121 119 129 125 122 115 120 132 134 132 125 133 136 120 144 141 134 136 127 112 104 86 82 83 84 87 90 88 90 90 89 88 87 85 86 84 83 79 76 73 71 66 61 59 56 54 51 50 46 44 41 38 35 28 22 21 24 26 28 33 34 33
118 119 119 120 126 126 127 130 125 122 124 119 112 118 123 123 127 125 123 126 114 106 105 114 117 113 97 91 114 102 124 127 112 115 134 112 130 127 131 143 139 148 137 123 103 87 68 78 82 83 85 86 86 87 88 87 90 89 89 85 80 78 75 70 65 59 54 50 47 46 43 39 37 34 31 25 17 13 14 20 23 24 26 27 14
121 120 122 124 126 124 122 119 117 121 115 111 112 113 113 120 122 131 129 120 114 115 113 110 100 83 68 101 118 119 120 106 116 131 133 129 116 114 124 140 146 131 113 130 124 103 67 62 69 73 77 79 80 81 81 87 89 90 88 85 82 77 72 64 59 53 47 43 40 39 36 34 29 22 17 12 9 10 14 18 18 16 18 14 13
121 120 123 122 123 124 124 123 119 117 112 111 119 119 119 120 116 118 123 122 125 124 126 125 111 105 118 116 102 101 118 111 131 116 109 118 134 142 126 131 116 124 141 144 148 144 104 67 58 60 67 73 72 72 74 78 79 83 82 80 75 68 59 54 50 44 39 36 34 29 25 19 14 10 8 6 5 6 12 16 17 16 14 11 9
123 122 121 125 125 126 121 118 119 119 116 107 111 122 126 129 123 121 118 122 123 134 149 132 136 132 89 116 119 126 128 138 101 107 114 110 133 117 139 138 154 153 146 131 137 149 148 122 80 69 63 50 60 57 57 58 64 61 65 67 66 55 49 41 33 28 29 29 20 9 9 7 4 3 1 1 359 3 11 15 18 18 15 11 10
124 123 125 126 123 122 124 114 120 116 114 112 110 103 121 121 124 136 128 126 110 123 120 126 145 153 149 130 117 116 131 126 117 98 96 90 91 118 124 128 139 122 116 180 149 180 125 148 133 144 67 28 36 38 33 37 33 28 27 33 32 24 11 15 11 13 24 24 6 1 359 360 359 358 357 357 358 4 8 12 17 19 17 14 13
129 126 128 131 127 124 117 115 103 107 108 111 120 131 123 127 133 128 133 125 129 143 148 149 150 130 120 133 123 129 131 121 113 111 101 92 126 121 152 144 150 166 162 197 169 140 211 158 146 144 146 352 28 22 8 4 358 359 8 351 351 355 354 358 358 359 15 12 3 356 356 355 355 354 356 355 359 5 8 12 18 21 21 20 17
130 132 131 125 124 115 111 106 106 92 98 99 94 95 107 124 170 131 136 154 156 161 178 139 108 107 81 125 155 141 131 110 117 99 94 113 108 128 137 109 137 232 186 183 125 88 181 185 191 194 156 169 282 328 334 339 334 347 341 341 339 344 349 350 349 354 4 7 2 357 354 353 352 354 355 357 1 7 10 13 17 22 25 22 18
135 133 132 126 124 117 99 91 85 63 64 65 67 75 90 116 131 159 147 140 179 172 168 136 150 152 163 110 96 106 127 126 109 128 106 108 96 59 96 70 190 205 164 161 202 185 204 200 236 201 184 163 207 225 299 277 284 322 337 340 346 354 344 349 350 353 5 1 360 357 353 353 353 354 357 0 5 9 13 16 18 23 24 19 15
132 129 133 140 126 99 78 48 49 50 51 53 49 63 66 90 109 163 189 142 176 215 178 175 162 154 110 128 101 101 124 110 101 107 120 118 100 33 73 160 228 198 145 164 243 244 139 247 262 273 199 215 202 219 267 287 313 335 345 345 355 355 354 354 357 360 3 358 357 357 356 355 356 358 360 4 9 12 16 15 16 21 20 16 14
140 134 148 146 125 112 74 20 22 29 25 27 45 34 59 357 151 131 161 158 173 220 190 207 196 166 179 144 168 165 136 133 152 149 146 124 119 211 184 151 245 184 121 214 198 78 337 283 250 236 233 253 248 227 231 252 296 333 341 356 356 359 0 4 5 5 2 359 356 356 357 358 360 1 4 7 12 18 19 16 16 19 17 15 14
143 135 154 143 135 110 57 4 7 17 38 40 33 37 55 36 133 151 175 210 160 199 236 198 221 191 175 189 170 155 127 143 139 151 133 139 nan nan 130 188 241 130 184 356 28 4 263 285 285 268 245 233 235 219 250 256 226 210 317 349 0 2 5 7 11 8 4 359 359 357 357 359 1 6 9 11 15 18 18 17 19 19 17 17 15
164 151 188 195 218 334 11 26 2 360 9 14 31 34 12 49 135 178 174 189 183 190 195 217 189 189 199 198 173 178 179 151 171 152 148 157 137 127 209 47 26 13 20 360 349 266 262 231 298 306 267 285 285 341 320 288 266 268 337 337 5 10 11 10 14 10 4 1 0 360 1 1 4 10 15 17 19 18 15 18 20 22 22 19 17
195 212 220 275 312 329 347 25 13 353 359 25 45 57 282 70 152 185 181 178 201 198 191 205 208 204 199 174 209 194 167 192 164 151 143 155 151 156 77 202 172 221 224 233 220 236 250 227 235 260 311 308 316 322 300 322 328 336 358 360 10 17 17 14 14 12 6 2 3 3 3 5 8 13 17 20 20 17 16 18 21 27 29 25 20
208 258 273 298 323 323 343 8 17 358 13 18 39 16 29 16 74 153 177 187 199 211 204 200 194 214 210 195 187 166 169 207 277 136 207 164 150 216 182 221 195 202 196 198 213 217 235 272 303 310 283 310 323 300 307 319 318 335 1 6 10 15 23 20 16 16 10 6 7 7 7 11 15 17 19 21 20 19 19 21 26 34 38 29 24
243 275 284 309 326 324 348 355 12 10 30 12 26 6 38 36 62 145 186 193 183 197 220 216 203 194 217 217 180 189 174 186 181 198 229 186 180 209 197 204 215 211 186 217 212 233 228 263 286 281 290 296 304 301 313 325 318 349 316 340 6 17 24 24 20 18 16 11 9 11 13 17 19 20 22 23 23 23 23 26 30 38 43 36 29
252 280 311 329 323 334 351 346 15 4 42 33 32 37 34 40 38 64 122 165 177 193 202 221 239 204 199 246 179 80 285 174 225 210 203 229 212 244 282 131 271 270 237 281 288 300 313 268 291 276 291 300 307 320 332 333 356 339 317 350 11 26 26 24 22 19 16 14 15 17 20 20 22 21 24 26 27 27 29 32 34 37 42 40 34
241 280 320 332 312 333 349 354 17 21 24 50 44 39 98 71 43 48 60 91 133 166 171 192 193 273 168 266 333 105 291 4 220 287 291 239 235 238 268 264 206 282 241 250 257 284 313 324 288 292 291 302 314 316 342 348 319 295 292 34 25 28 29 22 18 17 13 16 18 22 23 24 24 26 28 30 32 31 31 34 34 34 39 41 39
252 281 308 321 305 323 350 6 19 50 66 76 96 319 68 61 38 49 54 60 58 86 98 113 166 200 169 228 238 306 306 318 285 260 251 262 271 242 247 239 312 278 252 243 273 264 302 297 283 286 284 294 287 302 321 342 299 300 326 346 8 24 19 21 12 8 8 15 20 22 21 23 26 28 31 34 34 33 34 35 34 34 36 41 41
261 265 284 307 305 317 341 22 46 64 66 86 85 65 73 133 81 53 46 41 74 65 73 84 63 25 30 168 181 249 22 283 298 322 296 294 256 265 271 268 268 265 315 290 280 299 275 276 279 289 291 297 309 316 337 340 310 306 348 334 93 26 6 6 4 357 4 11 19 22 27 31 34 35 35 35 34 34 33 33 33 34 35 37 41
248 266 271 285 292 295 334 55 58 89 74 78 70 48 60 39 66 70 121 51 50 67 68 69 75 182 77 10 351 19 253 287 309 280 289 285 307 302 273 275 282 286 283 273 268 267 249 277 292 309 319 300 292 286 4 354 290 307 347 1 143 333 352 352 359 358 358 7 11 20 31 37 40 41 41 39 37 37 34 32 31 33 33 33 36
251 265 268 279 272 278 290 106 112 68 62 76 79 55 31 53 55 62 57 54 16 28 48 56 38 25 34 273 275 359 291 271 262 279 272 270 273 273 282 284 274 275 270 274 261 260 245 258 273 278 273 286 311 311 350 29 294 303 26 166 140 346 334 352 3 355 358 4 9 20 29 36 40 42 42 41 40 38 36 34 32 30 30 30 32
254 262 275 272 266 265 265 283 259 114 336 10 24 319 330 25 15 13 30 50 295 1 62 18 19 2 343 315 304 282 290 281 290 303 284 279 281 273 286 277 279 281 268 263 262 254 251 247 253 273 276 267 273 264 259 233 249 227 181 158 168 84 332 15 39 5 3 7 12 22 24 27 34 38 41 43 42 39 38 37 35 31 27 28 30
227 254 263 280 274 277 274 277 295 325 316 321 324 320 319 350 323 339 358 306 316 329 343 30 285 306 303 288 283 288 285 301 305 283 284 291 290 297 290 288 288 280 269 265 258 257 254 248 253 253 263 252 247 258 260 258 310 315 177 160 179 166 213 123 68 52 12 13 15 22 21 22 27 29 33 37 38 37 38 37 36 32 29 27 28
222 254 266 279 278 289 278 291 295 307 309 306 306 305 310 322 313 331 331 329 332 337 333 327 336 300 268 281 282 287 271 263 263 287 286 295 299 299 294 289 289 277 276 276 269 269 248 247 249 238 240 248 242 243 243 235 301 295 179 196 186 188 103 64 68 63 28 12 12 19 17 17 21 23 25 27 28 31 35 35 34 33 31 27 26
253 252 257 272 281 295 298 301 302 300 301 300 303 299 306 306 296 330 303 320 326 326 327 315 319 298 298 297 294 297 287 282 277 278 300 309 309 300 295 286 291 297 290 282 280 269 266 245 238 236 240 246 251 246 245 237 225 323 218 192 185 197 50 63 14 20 21 358 9 16 15 14 17 19 21 21 22 28 31 32 32 32 31 28 24
253 261 262 267 277 285 297 293 299 294 291 296 293 292 295 296 285 281 272 304 302 313 312 319 317 314 313 307 305 308 302 308 308 306 294 301 309 321 318 318 297 285 279 284 281 280 285 278 274 257 237 236 241 249 238 234 206 206 188 185 192 168 143 87 98 51 352 355 7 16 14 10 14 17 17 18 20 25 28 29 31 32 33 30 25
247 260 267 272 273 279 288 292 294 296 298 297 302 295 295 291 295 298 308 301 297 289 285 303 312 308 309 321 322 326 329 331 324 319 318 305 297 300 303 301 306 305 311 309 297 287 282 288 269 248 247 248 237 237 234 209 186 183 164 174 173 202 242 59 0 23 339 351 8 17 11 7 11 15 13 15 20 21 22 26 29 30 31 31 28
251 249 263 267 270 271 271 283 284 290 295 302 299 294 291 292 286 263 271 296 302 307 313 311 317 313 312 316 329 330 332 331 331 335 329 306 297 288 288 292 295 307 311 306 302 299 285 282 269 248 257 252 246 232 211 170 167 148 165 172 188 210 293 51 33 21 338 355 8 14 9 4 13 14 11 12 16 17 18 21 25 27 28 28 27
260 254 261 263 272 268 273 277 288 282 289 292 294 296 291 286 281 277 257 262 280 289 287 295 304 306 309 306 306 309 311 315 320 324 330 332 316 319 319 314 312 306 312 321 318 307 303 301 289 227 230 241 239 153 152 153 141 161 167 182 182 175 336 11 19 56 337 0 14 14 5 9 15 15 11 10 9 11 12 15 18 21 24 25 25
255 267 261 260 270 275 279 284 286 287 285 289 289 292 295 291 292 290 289 290 290 289 280 268 267 264 268 277 283 295 309 318 330 332 341 333 329 325 331 323 320 325 320 310 312 334 343 12 33 56 182 74 87 118 142 144 148 155 184 199 186 280 324 333 8 360 119 nan nan 19 13 14 19 10 12 13 8 7 7 9 12 15 18 19 20
257 256 268 265 272 278 280 286 292 295 292 289 290 286 287 290 288 287 291 293 296 298 300 303 301 297 292 299 300 302 310 314 326 323 299 283 310 339 344 331 320 317 331 352 355 360 11 19 37 72 59 98 109 123 137 139 151 169 184 215 261 308 324 330 329 341 342 296 238 274 7 12 16 11 14 13 8 6 6 4 6 9 11 14 16
259 261 264 269 273 279 284 284 290 295 299 300 295 299 295 290 292 292 295 305 307 301 309 309 308 310 313 310 306 307 309 309 316 322 325 331 329 338 330 326 333 336 342 343 343 357 6 28 42 57 79 92 157 155 161 160 149 173 222 258 287 307 320 323 333 332 329 289 189 32 31 44 29 358 4 12 9 8 4 1 3 4 4 9 12
265 267 268 268 268 276 281 284 282 284 289 297 301 304 305 302 303 305 303 300 300 309 313 316 316 317 315 316 313 313 317 312 310 303 308 305 308 321 319 314 309 306 312 321 321 324 329 342 5 41 104 187 47 103 152 210 237 263 263 265 295 305 314 319 321 318 311 309 322 291 272 315 349 6 17 12 8 8 3 3 5 360 1 2 5
264 268 273 276 276 276 277 275 278 274 281 290 292 299 302 303 290 300 299 300 300 292 290 292 307 313 312 309 313 318 307 313 313 272 254 254 260 266 271 280 288 295 301 302 302 302 308 315 314 315 328 324 321 324 278 264 260 254 268 278 283 290 300 305 308 312 310 302 293 295 290 280 317 318 299 315 338 352 3 8 357 356 358 356 359
261 261 266 273 276 280 280 282 276 273 266 273 287 286 269 273 299 293 295 296 295 288 286 291 297 299 302 296 285 270 271 292 298 293 290 273 269 267 269 270 274 280 286 290 294 298 297 299 299 289 286 284 nan 272 259 260 269 273 273 275 285 292 294 299 310 313 305 303 292 291 295 298 288 292 313 325 327 338 320 330 343 349 349 355 355
265 264 264 272 277 275 277 278 279 272 273 254 264 286 288 270 263 274 273 275 281 283 280 271 264 258 262 274 276 295 296 297 299 301 304 301 297 295 296 291 282 282 286 292 293 292 290 292 292 288 281 276 273 272 275 274 274 273 277 282 279 279 285 287 295 301 308 299 291 287 298 296 291 308 312 319 325 323 333 323 312 332 343 349 352
266 265 269 269 269 274 nan nan 274 272 264 258 263 256 256 255 254 260 265 265 271 275 279 277 275 280 283 282 294 290 307 311 307 304 302 309 313 315 313 309 306 312 306 294 287 290 297 293 291 287 281 281 282 284 281 276 276 277 279 279 278 273 273 282 288 288 285 283 278 276 291 294 295 297 308 318 321 316 310 312 331 331 336 345 350
257 263 265 268 272 271 266 268 nan nan 263 250 254 255 254 250 249 250 264 262 258 263 265 269 272 269 263 266 262 258 nan 277 294 299 303 307 317 329 325 322 324 320 323 329 322 307 286 282 278 281 284 276 278 280 276 274 275 280 280 282 278 274 273 272 274 268 271 271 274 283 282 283 288 297 307 307 303 307 310 326 335 332 336 340 347
253 254 257 259 264 267 266 261 263 262 259 249 249 250 253 253 252 251 258 259 263 262 258 257 254 260 273 276 272 272 263 261 260 270 266 269 277 294 301 301 303 314 329 342 346 350 335 306 293 293 295 291 286 281 278 278 281 284 280 280 278 276 273 271 255 259 266 275 286 278 276 280 285 290 299 293 297 298 303 298 318 330 337 342 346
255 252 250 244 237 243 259 263 259 257 252 242 246 248 249 251 253 252 258 257 261 264 265 269 271 264 253 247 251 261 267 265 250 242 263 272 275 269 269 276 282 288 289 301 308 304 299 302 309 306 299 298 287 275 274 274 270 271 272 271 274 282 287 292 295 291 284 291 296 295 293 278 276 277 277 278 279 286 286 303 323 329 336 339 344
251 248 244 246 247 242 244 244 255 251 255 244 242 242 241 243 247 257 263 267 264 264 265 260 254 250 245 241 233 228 239 250 239 235 242 247 251 253 255 262 271 274 278 269 261 258 273 288 292 287 274 266 272 275 275 276 277 276 279 286 285 287 290 287 283 277 283 284 287 284 280 273 273 273 275 277 280 284 284 283 311 329 333 336 338
257 258 251 255 259 257 256 256 268 264 261 251 246 244 242 240 246 258 263 264 266 264 262 258 255 256 259 260 260 261 263 258 243 240 240 242 254 253 253 251 254 252 252 254 262 262 261 260 260 264 266 266 266 267 269 272 284 282 280 282 287 283 285 281 273 274 282 282 281 283 287 289 283 279 274 274 278 280 281 282 286 314 330 329 332
251 252 253 255 254 257 258 261 264 263 258 251 247 245 243 242 244 254 259 261 263 264 259 258 262 264 263 256 255 258 258 257 251 249 244 246 256 253 253 250 252 257 262 265 266 267 269 271 271 271 271 270 272 279 282 285 290 293 295 292 280 276 278 278 274 274 278 282 282 277 283 284 275 275 272 270 278 287 290 288 286 290 314 322 332
247 250 249 251 253 253 256 261 261 259 254 250 246 243 241 241 244 251 255 257 255 252 255 258 260 262 262 261 259 257 258 257 255 253 252 250 253 251 248 249 251 254 258 256 257 259 264 267 272 276 282 289 290 284 284 287 291 298 305 309 293 289 290 288 285 279 279 285 279 271 277 278 275 272 272 272 280 289 293 296 294 292 291 294 306